Date String (YYYY-MM-DD hh:mm:ss) UTC,Instrument flags,Ambient pressure (hPa),Sample flow (lpm),Bypass flow (lpm),Sample temperature (°C),Ambient temperature (°C),ASC tube jacket temperature (°C),LED temperature (°C),Box temperature (°C),Sample RH (%),Span deviation,Mass concentration (μg/m³),Mass concentration (μg/m³),Mass concentration (μg/m³)
DateTimeUTC,F1_M11,P_M11,Q1_M11,Q2_M11,T1_M11,T2_M11,T3_M11,T4_M11,T5_M11,U1_M11,ZSPAN_M11,X0_M11,X2_M11,X1_M11
2023-01-15 20:00:00,,0807.5,5.00,0.00,23.5,22.3,00.0,32.2,25.4,13.6,0000.0,0004.34,0002.49,0002.07
2023-01-15 20:01:00,,0807.5,5.00,0.00,23.5,22.3,00.0,32.2,25.3,13.8,0000.0,0003.29,0002.44,0002.06
2023-01-15 20:02:00,,0807.5,5.01,0.00,23.5,22.3,00.0,32.2,25.4,14.1,0000.0,0003.02,0002.29,0001.97
2023-01-15 20:03:00,,0807.5,5.00,0.00,23.5,22.2,00.0,32.3,25.4,14.0,0000.0,0002.66,0002.09,0001.87
2023-01-15 20:04:00,,0807.5,4.99,0.00,23.5,22.2,00.0,32.3,25.3,14.2,0000.0,0002.54,0001.99,0001.78
2023-01-15 20:05:00,,0807.5,5.01,0.00,23.5,22.2,00.0,32.3,25.3,14.0,0000.0,0002.44,0001.89,0001.67
2023-01-15 20:06:00,,0807.5,5.00,0.00,23.5,22.2,00.0,32.3,25.3,14.1,0000.0,0002.27,0001.76,0001.57
2023-01-15 20:07:00,,0807.5,5.00,0.00,23.5,22.2,00.0,32.3,25.3,14.2,0000.0,0001.99,0001.61,0001.46
2023-01-15 20:08:00,,0807.5,5.01,0.00,23.5,22.2,00.0,32.3,25.3,14.1,0000.0,0001.91,0001.52,0001.37
2023-01-15 20:09:00,,0807.5,5.00,0.00,23.5,22.3,00.0,32.3,25.3,14.1,0000.0,0001.92,0001.48,0001.31
2023-01-15 20:10:00,,0807.5,4.99,0.00,23.5,22.3,00.0,32.3,25.4,14.4,0000.0,0001.92,0001.44,0001.25
2023-01-15 20:11:00,,0807.5,5.01,0.00,23.5,22.3,00.0,32.3,25.4,14.5,0000.0,0001.81,0001.38,0001.20
2023-01-15 20:12:00,,0807.5,5.00,0.00,23.5,22.2,00.0,32.3,25.3,15.0,0000.0,0001.75,0001.33,0001.14
2023-01-15 20:13:00,,0807.4,5.00,0.00,23.5,22.2,00.0,32.3,25.3,15.0,0000.0,0001.72,0001.30,0001.11
2023-01-15 20:14:00,,0807.4,5.00,0.00,23.5,22.1,00.0,32.3,25.3,15.0,0000.0,0001.82,0001.31,0001.11
2023-01-15 20:15:00,,0807.4,5.02,0.00,23.5,22.1,00.0,32.3,25.3,15.0,0000.0,0001.92,0001.35,0001.12
2023-01-15 20:16:00,,0807.4,5.00,0.00,23.5,22.0,00.0,32.3,25.2,15.0,0000.0,0001.96,0001.38,0001.15
2023-01-15 20:17:00,,0807.4,5.00,0.00,23.5,22.0,00.0,32.3,25.2,14.9,0000.0,0002.02,0001.42,0001.18
2023-01-15 20:18:00,,0807.4,5.00,0.00,23.4,22.0,00.0,32.3,25.2,14.7,0000.0,0002.09,0001.48,0001.21
2023-01-15 20:19:00,,0807.4,5.00,0.00,23.4,22.0,00.0,32.3,25.2,14.8,0000.0,0002.08,0001.50,0001.24
2023-01-15 20:20:00,,0807.4,4.99,0.00,23.4,22.0,00.0,32.3,25.2,14.4,0000.0,0002.01,0001.47,0001.23
2023-01-15 20:21:00,,0807.4,5.02,0.00,23.4,21.9,00.0,32.3,25.2,13.6,0000.0,0001.98,0001.45,0001.20
2023-01-15 20:22:00,,0807.4,5.01,0.00,23.4,21.9,00.0,32.3,25.2,13.7,0000.0,0002.02,0001.45,0001.19
2023-01-15 20:23:00,,0807.4,4.99,0.00,23.4,21.9,00.0,32.3,25.2,14.0,0000.0,0002.17,0001.51,0001.22
2023-01-15 20:24:00,,0807.4,5.01,0.00,23.4,21.8,00.0,32.3,25.1,13.9,0000.0,0002.21,0001.52,0001.22
2023-01-15 20:25:00,,0807.4,4.99,0.00,23.4,21.8,00.0,32.2,25.1,14.0,0000.0,0002.12,0001.51,0001.23
2023-01-15 20:26:00,,0807.4,5.00,0.00,23.3,21.8,00.0,32.2,25.1,13.5,0000.0,0002.14,0001.52,0001.24
2023-01-15 20:27:00,,0807.4,5.00,0.00,23.3,21.8,00.0,32.2,25.1,14.0,0000.0,0002.22,0001.56,0001.26
2023-01-15 20:28:00,,0807.3,5.01,0.00,23.3,21.7,00.0,32.2,25.1,13.8,0000.0,0002.47,0001.60,0001.30
2023-01-15 20:29:00,,0807.4,4.98,0.00,23.3,21.7,00.0,32.2,25.1,14.1,0000.0,0002.64,0001.64,0001.35
2023-01-15 20:30:00,,0807.4,5.01,0.00,23.3,21.7,00.0,32.2,25.1,14.5,0000.0,0002.67,0001.68,0001.38
2023-01-15 20:31:00,,0807.3,5.00,0.00,23.3,21.8,00.0,32.2,25.1,14.5,0000.0,0002.67,0001.71,0001.42
2023-01-15 20:32:00,,0807.3,5.01,0.00,23.3,21.8,00.0,32.2,25.1,14.6,0000.0,0002.78,0001.77,0001.49
2023-01-15 20:33:00,,0807.3,5.01,0.00,23.3,21.7,00.0,32.2,25.1,14.4,0000.0,0003.07,0001.88,0001.57
2023-01-15 20:34:00,,0807.3,5.00,0.00,23.3,21.7,00.0,32.2,25.0,14.2,0000.0,0003.01,0001.92,0001.65
2023-01-15 20:35:00,,0807.3,4.99,0.00,23.3,21.7,00.0,32.2,25.0,13.8,0000.0,0002.98,0001.99,0001.74
2023-01-15 20:36:00,,0807.3,5.01,0.00,23.2,21.7,00.0,32.2,25.0,13.9,0000.0,0003.12,0002.11,0001.85
2023-01-15 20:37:00,,0807.3,4.99,0.00,23.2,21.6,00.0,32.2,25.0,13.7,0000.0,0004.16,0002.22,0001.93
2023-01-15 20:38:00,,0807.3,5.01,0.00,23.2,21.7,00.0,32.1,25.0,13.7,0000.0,0004.19,0002.25,0001.99
2023-01-15 20:39:00,,0807.2,5.00,0.00,23.2,21.7,00.0,32.1,25.0,13.2,0000.0,0004.03,0002.28,0002.03
2023-01-15 20:40:00,,0807.2,5.02,0.00,23.2,21.6,00.0,32.1,25.0,12.8,0000.0,0003.83,0002.29,0002.06
2023-01-15 20:41:00,,0807.3,5.00,0.00,23.2,21.6,00.0,32.1,25.0,12.8,0000.0,0004.07,0002.29,0002.10
2023-01-15 20:42:00,,0807.2,5.00,0.00,23.2,21.6,00.0,32.1,25.0,14.0,0000.0,0004.21,0002.33,0002.13
2023-01-15 20:43:00,,0807.2,5.00,0.00,23.2,21.7,00.0,32.1,25.0,13.9,0000.0,0004.20,0002.36,0002.18
2023-01-15 20:44:00,,0807.2,4.99,0.00,23.2,21.7,00.0,32.1,25.0,13.7,0000.0,0003.97,0002.36,0002.22
2023-01-15 20:45:00,,0807.2,5.01,0.00,23.2,21.7,00.0,32.1,25.0,14.0,0000.0,0004.07,0002.42,0002.25
2023-01-15 20:46:00,,0807.2,5.00,0.00,23.2,21.7,00.0,32.1,25.0,14.2,0000.0,0004.26,0002.48,0002.28
2023-01-15 20:47:00,,0807.2,4.99,0.00,23.2,21.7,00.0,32.1,25.0,14.2,0000.0,0004.34,0002.51,0002.30
2023-01-15 20:48:00,,0807.2,4.98,0.00,23.2,21.7,00.0,32.1,25.0,14.2,0000.0,0003.32,0002.50,0002.33
2023-01-15 20:49:00,,0807.2,5.01,0.00,23.2,21.7,00.0,32.1,25.0,14.4,0000.0,0003.31,0002.54,0002.37
2023-01-15 20:50:00,,0807.2,5.00,0.00,23.2,21.7,00.0,32.1,25.0,14.6,0000.0,0003.84,0002.60,0002.41
2023-01-15 20:51:00,,0807.2,5.00,0.00,23.2,21.8,00.0,32.1,25.0,14.6,0000.0,0004.16,0002.70,0002.46
2023-01-15 20:52:00,,0807.1,4.99,0.00,23.2,21.7,00.0,32.1,25.0,14.4,0000.0,0004.10,0002.79,0002.51
2023-01-15 20:53:00,,0807.1,4.99,0.00,23.2,21.7,00.0,32.1,25.0,14.5,0000.0,0004.11,0002.90,0002.60
2023-01-15 20:54:00,,0807.1,5.02,0.00,23.2,21.7,00.0,32.1,25.0,14.5,0000.0,0004.28,0003.02,0002.68
2023-01-15 20:55:00,,0807.1,5.00,0.00,23.2,21.7,00.0,32.1,25.0,14.9,0000.0,0004.46,0003.12,0002.77
2023-01-15 20:56:00,,0807.1,5.00,0.00,23.2,21.7,00.0,32.1,25.0,15.0,0000.0,0004.66,0003.19,0002.87
2023-01-15 20:57:00,,0807.1,4.99,0.00,23.2,21.7,00.0,32.1,25.0,14.9,0000.0,0004.76,0003.26,0002.99
2023-01-15 20:58:00,,0807.1,4.99,0.00,23.2,21.7,00.0,32.1,25.0,14.6,0000.0,0004.91,0003.32,0003.10
2023-01-15 20:59:00,,0807.1,4.99,0.00,23.2,21.7,00.0,32.0,25.0,14.7,0000.0,0005.11,0003.41,0003.18
